GLO9930 SBRD-SBBR

Flight info

Callsign GLO9930
Flight time 1h 10m
Altitude FL310
Route ISUKA DCT ESUMU UM668 GIBKO DCT UBSUS
Aircraft B738/M-S/N

Departure

Time 2026-04-28 21:51
Airport Maestro Marinho Franco Airport (SBRD)

Arrival

Time 2026-04-28 23:01
Airport Presidente Juscelino Kubitschek International Airport (SBBR)
Time Latitude Longitude Altitude Speed Heading
2026-04-28 21:38 -16.58925 -54.72347 1474 ft 0 kts 143°
2026-04-28 21:43 -16.58920 -54.72352 1474 ft 2 kts 143°
2026-04-28 21:43 -16.58915 -54.72355 1474 ft 0 kts 143°
2026-04-28 21:44 -16.58920 -54.72349 1474 ft 3 kts 122°
2026-04-28 21:44 -16.58912 -54.72326 1474 ft 4 kts 35°
2026-04-28 21:44 -16.58885 -54.72336 1474 ft 4 kts 307°
2026-04-28 21:44 -16.58868 -54.72355 1474 ft 3 kts 316°
2026-04-28 21:45 -16.58860 -54.72378 1474 ft 4 kts 270°
2026-04-28 21:45 -16.58860 -54.72405 1474 ft 4 kts 270°
2026-04-28 21:45 -16.58859 -54.72432 1474 ft 4 kts 275°
2026-04-28 21:45 -16.58824 -54.72446 1474 ft 6 kts 10°
2026-04-28 21:46 -16.58782 -54.72441 1474 ft 6 kts
2026-04-28 21:46 -16.58737 -54.72436 1474 ft 7 kts
2026-04-28 21:46 -16.58688 -54.72433 1474 ft 7 kts
2026-04-28 21:46 -16.58636 -54.72429 1474 ft 8 kts
2026-04-28 21:47 -16.58580 -54.72425 1474 ft 9 kts
2026-04-28 21:47 -16.58504 -54.72419 1474 ft 12 kts
2026-04-28 21:47 -16.58410 -54.72411 1474 ft 13 kts
2026-04-28 21:47 -16.58307 -54.72402 1474 ft 16 kts
2026-04-28 21:48 -16.58188 -54.72392 1474 ft 18 kts
2026-04-28 21:48 -16.58061 -54.72382 1474 ft 20 kts
2026-04-28 21:48 -16.57946 -54.72369 1474 ft 15 kts
2026-04-28 21:48 -16.57827 -54.72359 1474 ft 13 kts
2026-04-28 21:49 -16.57748 -54.72358 1474 ft 8 kts 336°
2026-04-28 21:49 -16.57726 -54.72370 1474 ft 0 kts 341°
2026-04-28 21:49 -16.57720 -54.72372 1474 ft 2 kts 342°
2026-04-28 21:49 -16.57702 -54.72369 1474 ft 2 kts 34°
2026-04-28 21:50 -16.57696 -54.72357 1474 ft 2 kts 79°
2026-04-28 21:50 -16.57702 -54.72342 1474 ft 5 kts 132°
2026-04-28 21:50 -16.57749 -54.72342 1474 ft 18 kts 187°
2026-04-28 21:50 -16.58151 -54.72381 1474 ft 98 kts 186°
2026-04-28 21:51 -16.59065 -54.72468 1477 ft 163 kts 186°
2026-04-28 21:51 -16.60216 -54.72582 2098 ft 168 kts 187°
2026-04-28 21:51 -16.61415 -54.72682 2733 ft 185 kts 185°
2026-04-28 21:51 -16.62826 -54.72691 2848 ft 229 kts 180°
2026-04-28 21:52 -16.64585 -54.72590 3292 ft 262 kts 176°
2026-04-28 21:52 -16.66385 -54.72081 4155 ft 277 kts 151°
2026-04-28 21:52 -16.67715 -54.70679 5363 ft 275 kts 119°
2026-04-28 21:52 -16.68166 -54.68803 6598 ft 269 kts 88°
2026-04-28 21:53 -16.67634 -54.66955 7730 ft 271 kts 59°
2026-04-28 21:53 -16.66314 -54.65548 8795 ft 275 kts 39°
2026-04-28 21:53 -16.64751 -54.64370 9839 ft 281 kts 36°
2026-04-28 21:53 -16.63125 -54.63206 10863 ft 287 kts 35°
2026-04-28 21:54 -16.61454 -54.62022 11784 ft 295 kts 36°
2026-04-28 21:54 -16.59758 -54.60818 12697 ft 301 kts 36°
2026-04-28 21:54 -16.58006 -54.59575 13584 ft 308 kts 35°
2026-04-28 21:54 -16.56222 -54.58308 14447 ft 314 kts 35°
2026-04-28 21:55 -16.54405 -54.57021 15351 ft 317 kts 35°
2026-04-28 21:55 -16.52592 -54.55736 16263 ft 319 kts 35°
2026-04-28 21:55 -16.50746 -54.54429 17097 ft 323 kts 34°
2026-04-28 21:55 -16.48882 -54.53109 17885 ft 327 kts 34°
2026-04-28 21:56 -16.46994 -54.51773 18617 ft 332 kts 33°
2026-04-28 21:56 -16.45307 -54.50582 19228 ft 337 kts 33°
2026-04-28 21:56 -16.43418 -54.49247 19902 ft 341 kts 33°
2026-04-28 21:56 -16.41653 -54.48000 20605 ft 343 kts 33°
2026-04-28 21:57 -16.39772 -54.46673 21220 ft 348 kts 33°
2026-04-28 21:57 -16.37785 -54.45272 22033 ft 346 kts 32°
2026-04-28 21:57 -16.35779 -54.43858 22739 ft 349 kts 32°
2026-04-28 21:57 -16.33761 -54.42436 23377 ft 353 kts 32°
2026-04-28 21:58 -16.31735 -54.41010 24041 ft 355 kts 32°
2026-04-28 21:58 -16.29684 -54.39567 24679 ft 357 kts 32°
2026-04-28 21:58 -16.27624 -54.38119 25304 ft 360 kts 32°
2026-04-28 21:58 -16.25551 -54.36662 25887 ft 363 kts 32°
2026-04-28 21:59 -16.23453 -54.35190 26460 ft 365 kts 32°
2026-04-28 21:59 -16.21385 -54.33649 26992 ft 371 kts 40°
2026-04-28 21:59 -16.19878 -54.31569 27481 ft 378 kts 62°
2026-04-28 22:00 -16.19557 -54.26234 28476 ft 397 kts 105°
2026-04-28 22:00 -16.20769 -54.23680 29067 ft 402 kts 118°
2026-04-28 22:00 -16.22236 -54.21250 29550 ft 404 kts 117°
2026-04-28 22:00 -16.23547 -54.18580 30071 ft 404 kts 111°
2026-04-28 22:01 -16.24554 -54.15856 30552 ft 404 kts 105°
2026-04-28 22:01 -16.25361 -54.13037 30812 ft 412 kts 102°
2026-04-28 22:01 -16.26043 -54.10115 30848 ft 421 kts 100°
2026-04-28 22:02 -16.27023 -54.05184 30849 ft 435 kts 98°
2026-04-28 22:02 -16.27759 -54.00881 30848 ft 446 kts 97°
2026-04-28 22:02 -16.28262 -53.97684 30849 ft 452 kts 97°
2026-04-28 22:03 -16.29272 -53.91154 30861 ft 463 kts 97°
2026-04-28 22:03 -16.30295 -53.84470 30863 ft 472 kts 97°
2026-04-28 22:04 -16.31578 -53.77728 30863 ft 480 kts 102°
2026-04-28 22:04 -16.33254 -53.70986 30862 ft 485 kts 102°
2026-04-28 22:05 -16.34956 -53.64168 30879 ft 487 kts 102°
2026-04-28 22:05 -16.36650 -53.57354 30888 ft 488 kts 102°
2026-04-28 22:06 -16.38337 -53.50533 30889 ft 488 kts 102°
2026-04-28 22:06 -16.40018 -53.43709 30889 ft 488 kts 102°
2026-04-28 22:07 -16.41702 -53.36868 30888 ft 489 kts 102°
2026-04-28 22:07 -16.43381 -53.30026 30899 ft 488 kts 102°
2026-04-28 22:08 -16.45026 -53.23189 30899 ft 488 kts 101°
2026-04-28 22:08 -16.46671 -53.16361 30899 ft 488 kts 102°
2026-04-28 22:09 -16.48335 -53.09505 30899 ft 488 kts 102°
2026-04-28 22:09 -16.49985 -53.02677 30916 ft 487 kts 102°
2026-04-28 22:10 -16.51625 -52.95852 30920 ft 486 kts 102°
2026-04-28 22:10 -16.53257 -52.89048 30919 ft 486 kts 102°
2026-04-28 22:11 -16.54891 -52.82218 30919 ft 486 kts 102°
2026-04-28 22:11 -16.56546 -52.75429 30909 ft 486 kts 102°
2026-04-28 22:12 -16.58196 -52.68601 30905 ft 485 kts 102°
2026-04-28 22:12 -16.59823 -52.61800 30905 ft 485 kts 102°
2026-04-28 22:13 -16.61476 -52.55008 30905 ft 485 kts 102°
2026-04-28 22:13 -16.63138 -52.48206 30907 ft 484 kts 102°
2026-04-28 22:14 -16.64724 -52.41912 30912 ft 485 kts 102°
2026-04-28 22:14 -16.66174 -52.35949 30914 ft 486 kts 102°
2026-04-28 22:15 -16.67598 -52.30075 30913 ft 486 kts 102°
2026-04-28 22:15 -16.68990 -52.24254 30913 ft 486 kts 101°
2026-04-28 22:16 -16.70546 -52.17703 30914 ft 486 kts 101°
2026-04-28 22:16 -16.72099 -52.11176 30914 ft 487 kts 101°
2026-04-28 22:17 -16.73756 -52.04165 30914 ft 487 kts 101°
2026-04-28 22:17 -16.75380 -51.97315 30914 ft 487 kts 101°
2026-04-28 22:18 -16.76957 -51.90679 30914 ft 487 kts 101°
2026-04-28 22:18 -16.78604 -51.83747 30923 ft 488 kts 101°
2026-04-28 22:19 -16.80236 -51.76865 30923 ft 488 kts 101°
2026-04-28 22:19 -16.81851 -51.70028 30923 ft 488 kts 101°
2026-04-28 22:20 -16.83472 -51.63168 30923 ft 488 kts 101°
2026-04-28 22:20 -16.85093 -51.56310 30924 ft 488 kts 101°
2026-04-28 22:21 -16.86707 -51.49443 30929 ft 489 kts 101°
2026-04-28 22:21 -16.88359 -51.42554 30929 ft 490 kts 101°
2026-04-28 22:22 -16.89995 -51.35679 30929 ft 490 kts 101°
2026-04-28 22:22 -16.91595 -51.28761 30929 ft 490 kts 101°
2026-04-28 22:23 -16.93221 -51.21908 30920 ft 492 kts 101°
2026-04-28 22:23 -16.94836 -51.15069 30920 ft 494 kts 101°
2026-04-28 22:24 -16.96507 -51.07970 30920 ft 495 kts 101°
2026-04-28 22:24 -16.98137 -51.00999 30919 ft 495 kts 101°
2026-04-28 22:25 -16.99760 -50.93990 30930 ft 498 kts 101°
2026-04-28 22:25 -17.01396 -50.86968 30931 ft 499 kts 101°
2026-04-28 22:26 -17.03026 -50.79950 30931 ft 500 kts 101°
2026-04-28 22:26 -17.04559 -50.73326 30931 ft 500 kts 101°
2026-04-28 22:27 -17.06180 -50.66266 30920 ft 502 kts 101°
2026-04-28 22:27 -17.07784 -50.59167 30920 ft 503 kts 101°
2026-04-28 22:28 -17.09092 -50.52009 30922 ft 499 kts 90°
2026-04-28 22:28 -17.08881 -50.44953 30920 ft 498 kts 84°
2026-04-28 22:29 -17.08492 -50.37598 30919 ft 498 kts 83°
2026-04-28 22:29 -17.07955 -50.30379 30918 ft 500 kts 83°
2026-04-28 22:30 -17.07398 -50.23159 30918 ft 500 kts 83°
2026-04-28 22:30 -17.06838 -50.15914 30918 ft 500 kts 83°
2026-04-28 22:31 -17.06265 -50.08683 30911 ft 501 kts 83°
2026-04-28 22:31 -17.05700 -50.01430 30907 ft 503 kts 83°
2026-04-28 22:32 -17.05140 -49.94142 30907 ft 503 kts 83°
2026-04-28 22:32 -17.04585 -49.86887 30907 ft 504 kts 83°
2026-04-28 22:33 -17.03833 -49.79637 30901 ft 499 kts 72°
2026-04-28 22:33 -17.02496 -49.76374 30925 ft 493 kts 58°
2026-04-28 22:33 -17.00948 -49.73788 30921 ft 492 kts 54°
2026-04-28 22:34 -16.97083 -49.67924 30919 ft 491 kts 52°
2026-04-28 22:34 -16.93145 -49.62099 30920 ft 491 kts 52°
2026-04-28 22:35 -16.89135 -49.56358 30919 ft 491 kts 51°
2026-04-28 22:35 -16.85082 -49.50655 30937 ft 490 kts 51°
2026-04-28 22:36 -16.81065 -49.44964 30938 ft 490 kts 51°
2026-04-28 22:36 -16.79070 -49.42128 30935 ft 472 kts 51°
2026-04-28 22:36 -16.77178 -49.39445 30917 ft 450 kts 51°
2026-04-28 22:36 -16.75901 -49.37635 30620 ft 442 kts 51°
2026-04-28 22:37 -16.74357 -49.35446 30249 ft 434 kts 51°
2026-04-28 22:37 -16.72722 -49.33133 29837 ft 427 kts 51°
2026-04-28 22:37 -16.70818 -49.30451 29293 ft 422 kts 50°
2026-04-28 22:37 -16.69069 -49.27998 28783 ft 417 kts 50°
2026-04-28 22:38 -16.67345 -49.25588 28295 ft 413 kts 50°
2026-04-28 22:38 -16.65625 -49.23218 27809 ft 409 kts 49°
2026-04-28 22:38 -16.63962 -49.20855 27320 ft 406 kts 51°
2026-04-28 22:38 -16.62369 -49.18456 27071 ft 397 kts 52°
2026-04-28 22:39 -16.60852 -49.16104 26899 ft 386 kts 53°
2026-04-28 22:39 -16.59346 -49.13793 26282 ft 388 kts 52°
2026-04-28 22:39 -16.57827 -49.11459 25626 ft 392 kts 52°
2026-04-28 22:39 -16.56294 -49.09096 25035 ft 392 kts 52°
2026-04-28 22:40 -16.54768 -49.06757 24520 ft 390 kts 53°
2026-04-28 22:40 -16.53263 -49.04440 23995 ft 390 kts 52°
2026-04-28 22:40 -16.51741 -49.02104 23404 ft 392 kts 53°
2026-04-28 22:40 -16.50211 -48.99753 22831 ft 393 kts 54°
2026-04-28 22:41 -16.48684 -48.97395 22285 ft 394 kts 55°
2026-04-28 22:41 -16.47149 -48.95049 21767 ft 393 kts 55°
2026-04-28 22:41 -16.45608 -48.92687 21275 ft 392 kts 56°
2026-04-28 22:41 -16.44093 -48.90343 20811 ft 390 kts 56°
2026-04-28 22:42 -16.42563 -48.88028 20365 ft 387 kts 57°
2026-04-28 22:42 -16.41069 -48.85724 19935 ft 384 kts 57°
2026-04-28 22:42 -16.39580 -48.83440 19512 ft 380 kts 57°
2026-04-28 22:42 -16.38090 -48.81162 19095 ft 376 kts 57°
2026-04-28 22:43 -16.36639 -48.78939 18682 ft 374 kts 57°
2026-04-28 22:43 -16.35181 -48.76702 18257 ft 370 kts 57°
2026-04-28 22:43 -16.33753 -48.74518 17840 ft 367 kts 57°
2026-04-28 22:43 -16.32314 -48.72316 17419 ft 364 kts 57°
2026-04-28 22:44 -16.30917 -48.70179 17006 ft 360 kts 57°
2026-04-28 22:44 -16.29505 -48.68019 16586 ft 357 kts 57°
2026-04-28 22:44 -16.28118 -48.65900 16170 ft 354 kts 57°
2026-04-28 22:44 -16.26744 -48.63802 15754 ft 351 kts 57°
2026-04-28 22:45 -16.25389 -48.61727 15337 ft 348 kts 58°
2026-04-28 22:45 -16.24346 -48.59500 15062 ft 339 kts 70°
2026-04-28 22:45 -16.23883 -48.58035 14980 ft 331 kts 74°
2026-04-28 22:45 -16.23493 -48.56610 14904 ft 325 kts 75°
2026-04-28 22:46 -16.23086 -48.55001 14816 ft 318 kts 76°
2026-04-28 22:46 -16.22557 -48.52796 14692 ft 312 kts 76°
2026-04-28 22:46 -16.22044 -48.50640 14570 ft 306 kts 76°
2026-04-28 22:47 -16.21602 -48.48782 14465 ft 309 kts 76°
2026-04-28 22:47 -16.21100 -48.46676 14347 ft 310 kts 76°
2026-04-28 22:47 -16.20582 -48.44511 14221 ft 308 kts 76°
2026-04-28 22:47 -16.20073 -48.42384 14101 ft 308 kts 76°
2026-04-28 22:48 -16.19552 -48.40215 13978 ft 307 kts 76°
2026-04-28 22:48 -16.19038 -48.38076 13800 ft 306 kts 76°
2026-04-28 22:48 -16.18522 -48.35929 13524 ft 304 kts 76°
2026-04-28 22:48 -16.18008 -48.33797 13187 ft 304 kts 76°
2026-04-28 22:49 -16.17513 -48.31744 12881 ft 302 kts 76°
2026-04-28 22:49 -16.16998 -48.29557 12526 ft 303 kts 76°
2026-04-28 22:49 -16.16489 -48.27404 11696 ft 318 kts 76°
2026-04-28 22:49 -16.15858 -48.25171 11223 ft 321 kts 68°
2026-04-28 22:50 -16.14613 -48.23391 11119 ft 311 kts 43°
2026-04-28 22:50 -16.12758 -48.22188 11064 ft 301 kts 26°
2026-04-28 22:50 -16.10847 -48.21434 11005 ft 291 kts 19°
2026-04-28 22:50 -16.08931 -48.20847 10945 ft 282 kts 15°
2026-04-28 22:51 -16.07067 -48.20350 10889 ft 274 kts 14°
2026-04-28 22:51 -16.06252 -48.20142 10865 ft 270 kts 14°
2026-04-28 22:51 -16.03496 -48.19438 10784 ft 258 kts 14°
2026-04-28 22:51 -16.01774 -48.18998 10733 ft 251 kts 14°
2026-04-28 22:52 -16.00101 -48.18613 10675 ft 245 kts
2026-04-28 22:52 -15.98435 -48.18677 10590 ft 240 kts 351°
2026-04-28 22:52 -15.96828 -48.19137 10420 ft 239 kts 341°
2026-04-28 22:52 -15.95266 -48.19723 10239 ft 239 kts 341°
2026-04-28 22:53 -15.93680 -48.20229 10059 ft 238 kts 345°
2026-04-28 22:53 -15.92074 -48.20610 9924 ft 238 kts 350°
2026-04-28 22:53 -15.90435 -48.20754 9769 ft 236 kts
2026-04-28 22:53 -15.88927 -48.20120 9415 ft 236 kts 39°
2026-04-28 22:54 -15.88108 -48.18799 9187 ft 205 kts 71°
2026-04-28 22:54 -15.87862 -48.17426 8896 ft 185 kts 85°
2026-04-28 22:54 -15.87790 -48.16156 8424 ft 174 kts 90°
2026-04-28 22:54 -15.87764 -48.14917 7748 ft 170 kts 90°
2026-04-28 22:55 -15.87707 -48.13682 6937 ft 171 kts 89°
2026-04-28 22:55 -15.87630 -48.12500 6467 ft 155 kts 88°
2026-04-28 22:55 -15.87554 -48.11451 6145 ft 138 kts 88°
2026-04-28 22:55 -15.87487 -48.10521 6115 ft 124 kts 88°
2026-04-28 22:56 -15.87434 -48.09606 6207 ft 130 kts 89°
2026-04-28 22:56 -15.87377 -48.08666 6192 ft 130 kts 88°
2026-04-28 22:56 -15.87312 -48.07735 6205 ft 130 kts 88°
2026-04-28 22:56 -15.87255 -48.06798 6116 ft 130 kts 89°
2026-04-28 22:57 -15.87195 -48.05868 5948 ft 129 kts 88°
2026-04-28 22:57 -15.87137 -48.04943 5779 ft 129 kts 89°
2026-04-28 22:57 -15.87077 -48.04018 5614 ft 129 kts 88°
2026-04-28 22:57 -15.87020 -48.03099 5439 ft 128 kts 88°
2026-04-28 22:58 -15.86960 -48.02173 5267 ft 128 kts 88°
2026-04-28 22:58 -15.86901 -48.01257 5101 ft 128 kts 88°
2026-04-28 22:58 -15.86843 -48.00337 4933 ft 128 kts 88°
2026-04-28 22:58 -15.86785 -47.99422 4763 ft 127 kts 88°
2026-04-28 22:59 -15.86727 -47.98516 4593 ft 126 kts 88°
2026-04-28 22:59 -15.86667 -47.97600 4429 ft 127 kts 88°
2026-04-28 22:59 -15.86608 -47.96694 4260 ft 126 kts 88°
2026-04-28 22:59 -15.86552 -47.95789 4095 ft 126 kts 88°
2026-04-28 23:00 -15.86491 -47.94889 3923 ft 125 kts 88°
2026-04-28 23:00 -15.86438 -47.94005 3759 ft 124 kts 88°
2026-04-28 23:00 -15.86379 -47.93088 3603 ft 128 kts 87°
2026-04-28 23:00 -15.86313 -47.92177 3525 ft 120 kts 86°
2026-04-28 23:01 -15.86251 -47.91397 3487 ft 89 kts 89°
2026-04-28 23:01 -15.86235 -47.90958 3487 ft 36 kts 86°
2026-04-28 23:01 -15.86270 -47.90837 3487 ft 14 kts 139°
2026-04-28 23:01 -15.86316 -47.90788 3487 ft 12 kts 133°
2026-04-28 23:02 -15.86369 -47.90737 3487 ft 6 kts 156°
2026-04-28 23:02 -15.86392 -47.90748 3487 ft 3 kts 249°
2026-04-28 23:02 -15.86393 -47.90761 3487 ft 1 kts 266°
2026-04-28 23:02 -15.86394 -47.90770 3487 ft 2 kts 266°
2026-04-28 23:03 -15.86395 -47.90788 3487 ft 3 kts 266°
2026-04-28 23:03 -15.86396 -47.90818 3487 ft 5 kts 266°
2026-04-28 23:03 -15.86399 -47.90859 3487 ft 6 kts 266°
2026-04-28 23:03 -15.86401 -47.90909 3487 ft 8 kts 266°
2026-04-28 23:04 -15.86407 -47.90970 3487 ft 9 kts 264°
2026-04-28 23:04 -15.86417 -47.91121 3487 ft 12 kts 266°
2026-04-28 23:04 -15.86422 -47.91211 3487 ft 13 kts 266°
2026-04-28 23:05 -15.86428 -47.91310 3487 ft 15 kts 266°
2026-04-28 23:05 -15.86435 -47.91403 3487 ft 12 kts 265°
2026-04-28 23:05 -15.86443 -47.91496 3487 ft 14 kts 265°
2026-04-28 23:05 -15.86451 -47.91595 3487 ft 11 kts 267°
2026-04-28 23:06 -15.86454 -47.91679 3487 ft 13 kts 267°
2026-04-28 23:06 -15.86458 -47.91772 3487 ft 13 kts 267°
2026-04-28 23:06 -15.86487 -47.91825 3487 ft 8 kts 209°
2026-04-28 23:06 -15.86537 -47.91830 3487 ft 7 kts 177°
2026-04-28 23:07 -15.86593 -47.91827 3487 ft 9 kts 177°
2026-04-28 23:07 -15.86654 -47.91829 3487 ft 7 kts 214°
2026-04-28 23:07 -15.86662 -47.91879 3487 ft 8 kts 265°
2026-04-28 23:07 -15.86667 -47.91944 3487 ft 9 kts 265°
2026-04-28 23:08 -15.86672 -47.92018 3487 ft 11 kts 265°
2026-04-28 23:08 -15.86678 -47.92090 3487 ft 6 kts 265°
2026-04-28 23:08 -15.86681 -47.92131 3487 ft 2 kts 264°
2026-04-28 23:08 -15.86682 -47.92135 3487 ft 1 kts 264°
2026-04-28 23:09 -15.86683 -47.92149 3487 ft 3 kts 263°
2026-04-28 23:09 -15.86690 -47.92163 3487 ft 2 kts 222°
2026-04-28 23:09 -15.86707 -47.92171 3487 ft 3 kts 188°
2026-04-28 23:09 -15.86718 -47.92166 3487 ft 2 kts 146°
2026-04-28 23:10 -15.86723 -47.92156 3487 ft 2 kts 106°
2026-04-28 23:10 -15.86723 -47.92142 3487 ft 2 kts 90°
2026-04-28 23:10 -15.86725 -47.92134 3487 ft 1 kts 116°
2026-04-28 23:10 -15.86729 -47.92126 3487 ft 0 kts 114°
2026-04-28 23:11 -15.86726 -47.92133 3487 ft 2 kts 114°
2026-04-28 23:11 -15.86725 -47.92135 3487 ft 0 kts 114°